TimeEDT,TemperatureF,Dew PointF,Humidity,Sea Level PressureIn,VisibilityMPH,Wind Direction,Wind SpeedMPH,Gust SpeedMPH,PrecipitationIn,Events,Conditions,WindDirDegrees,DateUTC
12:51 AM,60.1,55.9,86,29.76,-9999.0,WSW,10.4,17.3,N/A,,Unknown,240,2013-06-26 04:51:00
1:51 AM,62.1,55.9,80,29.76,-9999.0,WSW,8.1,-,N/A,,Unknown,250,2013-06-26 05:51:00
2:51 AM,63.0,55.9,78,29.75,-9999.0,WSW,8.1,-,N/A,,Unknown,240,2013-06-26 06:51:00
3:51 AM,62.1,55.9,80,29.74,-9999.0,WSW,9.2,-,N/A,,Unknown,240,2013-06-26 07:51:00
4:51 AM,63.0,57.9,84,29.73,-9999.0,WSW,9.2,-,N/A,,Unknown,240,2013-06-26 08:51:00
5:51 AM,64.0,57.9,80,29.73,-9999.0,WSW,10.4,-,N/A,,Unknown,240,2013-06-26 09:51:00
6:51 AM,66.9,57.0,70,29.73,-9999.0,Calm,Calm,-,N/A,,Unknown,0,2013-06-26 10:51:00
7:51 AM,57.9,53.1,84,29.75,-9999.0,Calm,Calm,-,N/A,,Unknown,0,2013-06-26 11:51:00
8:51 AM,54.0,48.0,80,29.76,-9999.0,Calm,Calm,-,N/A,,Unknown,0,2013-06-26 12:51:00
9:51 AM,52.0,46.0,80,29.76,-9999.0,Calm,Calm,-,N/A,,Unknown,0,2013-06-26 13:51:00
10:51 AM,57.0,48.0,72,29.74,-9999.0,Calm,Calm,-,N/A,,Unknown,0,2013-06-26 14:51:00
11:51 AM,59.0,48.9,69,29.72,-9999.0,Calm,Calm,-,N/A,,Unknown,0,2013-06-26 15:51:00
12:51 PM,77.0,64.0,64,29.70,-9999.0,Variable,6.9,-,N/A,,Unknown,0,2013-06-26 16:51:00
1:51 PM,78.1,64.9,64,29.71,-9999.0,Variable,3.5,-,N/A,,Unknown,0,2013-06-26 17:51:00
2:51 PM,80.1,64.9,60,29.68,-9999.0,South,5.8,-,N/A,,Unknown,170,2013-06-26 18:51:00
3:51 PM,81.0,66.9,62,29.68,-9999.0,Variable,6.9,-,N/A,,Unknown,0,2013-06-26 19:51:00
4:51 PM,79.0,66.0,64,29.66,-9999.0,Variable,5.8,-,N/A,,Unknown,0,2013-06-26 20:51:00
5:51 PM,73.9,63.0,68,29.66,-9999.0,SSW,6.9,16.1,N/A,,Unknown,200,2013-06-26 21:51:00
6:12 PM,53.6,51.8,94,29.79,-9999.0,North,36.8,47.2,N/A,,Unknown,10,2013-06-26 22:12:00
6:18 PM,53.6,51.8,94,29.83,-9999.0,North,16.1,47.2,N/A,,Unknown,350,2013-06-26 22:18:00
6:51 PM,57.0,57.0,100,29.78,-9999.0,ESE,3.5,-,0.47,,Unknown,120,2013-06-26 22:51:00
7:51 PM,59.0,59.0,100,29.72,-9999.0,Calm,Calm,-,0.21,,Unknown,0,2013-06-26 23:51:00
8:51 PM,59.0,59.0,100,29.72,-9999.0,Calm,Calm,-,0.06,,Unknown,0,2013-06-27 00:51:00
9:51 PM,62.1,62.1,100,29.74,-9999.0,Calm,Calm,-,N/A,,Unknown,0,2013-06-27 01:51:00
10:51 PM,59.0,57.9,96,29.74,-9999.0,SW,8.1,-,N/A,,Unknown,230,2013-06-27 02:51:00
11:51 PM,59.0,59.0,100,29.73,-9999.0,WSW,12.7,19.6,N/A,,Unknown,240,2013-06-27 03:51:00